Location: St. Louis
(38.6270°N, 90.1994°W)
Time: 09:17:59
(UTC-06:00)

SR - Pass Details

Date: 30 November 2021
Orbit: 582 x 872 km, 66.7° (Epoch: 21 January)

Event Time Altitude Azimuth Distance (km) Brightness Sun altitude
Rises 01:51:37 0° 264° (W) 2,962 - -58.9°
Reaches altitude 10° 01:56:24 10° 309° (NW) 1,982 - -58.0°
Maximum altitude 01:56:54 10° 315° (NW) 1,965 - -57.9°
Drops below altitude 10° 01:57:24 10° 322° (NW) 1,970 - -57.8°
Sets 02:02:02 0° 8° (N) 2,830 - -57.0°
